| time (UTC) | temp F | wind direction | speed knots | gust knots | rain 1hr in | rain 24hr in | rain mn in | humidity % | barometer mb |
| 20260502181038 | 64 | 341 | 2.6 | 3.5 | 0.00 | 0.00 | 0.00 | 64 | 1019.6 |
| 20260502180535 | 63 | 11 | 1.7 | 5.2 | 0.00 | 0.00 | 0.00 | 67 | 1019.6 |
| 20260502170454 | 60 | 311 | 0.9 | 6.1 | 0.00 | 0.00 | 0.00 | 72 | 1019.9 |
| 20260502163937 | 57 | 305 | 1.7 | 3.5 | 0.00 | 0.00 | 0.00 | 75 | 1019.9 |
| 20260502163433 | 57 | 52 | 0.9 | 2.6 | 0.00 | 0.00 | 0.00 | 76 | 1019.6 |
| 20260502162931 | 56 | 306 | 1.7 | 2.6 | 0.00 | 0.00 | 0.00 | 76 | 1019.9 |
| 20260502162428 | 56 | 316 | 0.9 | 2.6 | 0.00 | 0.00 | 0.00 | 77 | 1019.9 |
| 20260502161925 | 56 | 224 | 2.6 | 5.2 | 0.00 | 0.00 | 0.00 | 77 | 1019.6 |
| 20260502161421 | 56 | 46 | 2.6 | 3.5 | 0.00 | 0.00 | 0.00 | 77 | 1019.6 |
| 20260502160919 | 55 | 3 | 1.7 | 5.2 | 0.00 | 0.00 | 0.00 | 78 | 1019.6 |
| 20260502160417 | 55 | 21 | 3.5 | 5.2 | 0.00 | 0.00 | 0.00 | 78 | 1019.6 |
| 20260502151855 | 51 | 324 | 1.7 | 2.6 | 0.00 | 0.00 | 0.00 | 94 | 1019.6 |
| 20260502151351 | 51 | 28 | 0.9 | 0.9 | 0.00 | 0.00 | 0.00 | 94 | 1019.6 |
| 20260502150849 | 51 | 82 | 0.0 | 0.9 | 0.00 | 0.00 | 0.00 | 94 | 1019.6 |
| 20260502150345 | 50 | 82 | 0.9 | 1.7 | 0.00 | 0.00 | 0.00 | 95 | 1019.6 |
| 20260502130734 | 47 | 92 | 0.0 | 0.9 | 0.00 | 0.00 | 0.00 | 95 | 1019.6 |
| 20260502130231 | 47 | 127 | 0.0 | 0.0 | 0.00 | 0.00 | 0.00 | 95 | 1019.2 |
| 20260502123717 | 47 | 117 | 0.9 | 0.9 | 0.00 | 0.00 | 0.00 | 94 | 1019.2 |
| 20260502123214 | 47 | 134 | 0.0 | 0.0 | 0.00 | 0.00 | 0.00 | 94 | 1019.2 |
| 20260502122710 | 46 | 134 | 0.0 | 0.0 | 0.00 | 0.00 | 0.00 | 94 | 1019.2 |
| 20260502122207 | 47 | 134 | 0.0 | 0.0 | 0.00 | 0.00 | 0.00 | 94 | 1019.2 |
| 20260502121705 | 47 | 134 | 0.0 | 0.0 | 0.00 | 0.00 | 0.00 | 94 | 1019.2 |
| 20260502121203 | 47 | 122 | 0.0 | 0.0 | 0.00 | 0.00 | 0.00 | 94 | 1019.2 |
| 20260502120659 | 47 | 125 | 0.0 | 0.9 | 0.00 | 0.00 | 0.00 | 94 | 1019.2 |
| 20260502120156 | 46 | 166 | 0.0 | 0.9 | 0.00 | 0.00 | 0.00 | 94 | 1019.2 |
| 20260502115654 | 46 | 166 | 0.9 | 0.9 | 0.00 | 0.00 | 0.00 | 94 | 1019.2 |
| 20260502115149 | 46 | 139 | 0.0 | 0.0 | 0.00 | 0.00 | 0.00 | 93 | 1019.2 |
| 20260502114646 | 46 | 140 | 0.0 | 0.9 | 0.00 | 0.00 | 0.00 | 93 | 1019.2 |
| 20260502114143 | 47 | 134 | 0.0 | 0.0 | 0.00 | 0.00 | 0.00 | 93 | 1018.9 |
| 20260502113640 | 47 | 134 | 0.9 | 0.9 | 0.00 | 0.00 | 0.00 | 93 | 1018.5 |
| 20260502113139 | 47 | 134 | 0.0 | 0.9 | 0.00 | 0.00 | 0.00 | 93 | 1018.9 |
| 20260502112636 | 47 | 134 | 0.0 | 0.0 | 0.00 | 0.00 | 0.00 | 93 | 1018.9 |
| 20260502112133 | 47 | 134 | 0.0 | 0.0 | 0.00 | 0.00 | 0.00 | 93 | 1018.5 |
| 20260502111631 | 47 | 134 | 0.0 | 0.0 | 0.00 | 0.00 | 0.00 | 93 | 1018.9 |
| 20260502111128 | 47 | 134 | 0.0 | 0.0 | 0.00 | 0.00 | 0.00 | 93 | 1018.9 |
| 20260502110626 | 47 | 134 | 0.0 | 0.9 | 0.00 | 0.00 | 0.00 | 93 | 1018.9 |
| 20260502110123 | 48 | 135 | 0.0 | 0.0 | 0.00 | 0.00 | 0.00 | 93 | 1018.9 |
| 20260502105620 | 48 | 135 | 0.0 | 0.9 | 0.00 | 0.00 | 0.00 | 93 | 1018.9 |
| 20260502105117 | 47 | 130 | 0.0 | 0.0 | 0.00 | 0.00 | 0.00 | 92 | 1018.9 |
| 20260502104614 | 48 | 128 | 0.0 | 1.7 | 0.00 | 0.00 | 0.00 | 93 | 1018.9 |
| 20260502104112 | 47 | 118 | 0.0 | 0.0 | 0.00 | 0.00 | 0.00 | 92 | 1018.9 |
| 20260502103609 | 48 | 139 | 0.9 | 0.9 | 0.00 | 0.00 | 0.00 | 92 | 1018.9 |
| 20260502103108 | 48 | 77 | 0.0 | 0.0 | 0.00 | 0.00 | 0.00 | 92 | 1018.9 |
| 20260502102604 | 48 | 77 | 0.0 | 0.0 | 0.00 | 0.00 | 0.00 | 92 | 1019.2 |
| 20260502102101 | 48 | 77 | 0.0 | 0.0 | 0.00 | 0.00 | 0.00 | 92 | 1019.2 |
| 20260502101559 | 48 | 77 | 0.0 | 0.0 | 0.00 | 0.00 | 0.00 | 92 | 1019.2 |
| 20260502101057 | 48 | 77 | 0.0 | 0.0 | 0.00 | 0.00 | 0.00 | 92 | 1018.9 |
| 20260502100555 | 48 | 77 | 0.0 | 0.9 | 0.00 | 0.00 | 0.00 | 91 | 1018.9 |
| 20260502091529 | 48 | 198 | 0.0 | 0.9 | 0.00 | 0.00 | 0.00 | 91 | 1018.9 |
| 20260502091027 | 48 | 198 | 0.0 | 2.6 | 0.00 | 0.00 | 0.00 | 90 | 1018.9 |
| 20260502090524 | 49 | 140 | 0.0 | 0.9 | 0.00 | 0.00 | 0.00 | 90 | 1018.9 |
| 20260502071418 | 51 | 252 | 1.7 | 1.7 | 0.00 | 0.00 | 0.00 | 86 | 1018.5 |
| 20260502070916 | 51 | 95 | 0.9 | 3.5 | 0.00 | 0.00 | 0.00 | 86 | 1018.5 |
| 20260502070414 | 51 | 80 | 0.9 | 1.7 | 0.00 | 0.00 | 0.00 | 86 | 1018.5 |
| 20260502065912 | 51 | 0 | 0.9 | 2.6 | 0.00 | 0.00 | 0.00 | 85 | 1018.5 |
| 20260502065410 | 51 | 32 | 0.9 | 2.6 | 0.00 | 0.00 | 0.00 | 85 | 1018.9 |
| 20260502064908 | 51 | 86 | 0.9 | 1.7 | 0.00 | 0.00 | 0.00 | 85 | 1018.9 |
| 20260502064406 | 51 | 64 | 1.7 | 5.2 | 0.00 | 0.00 | 0.00 | 85 | 1018.5 |
| 20260502063903 | 51 | 117 | 0.9 | 6.1 | 0.00 | 0.00 | 0.00 | 84 | 1018.5 |
| 20260502063400 | 51 | 5 | 2.6 | 6.1 | 0.00 | 0.00 | 0.00 | 84 | 1018.5 |
| 20260502062858 | 51 | 30 | 1.7 | 3.5 | 0.00 | 0.00 | 0.00 | 84 | 1018.5 |
| 20260502062355 | 52 | 58 | 0.9 | 1.7 | 0.00 | 0.00 | 0.00 | 83 | 1018.5 |
| 20260502061854 | 52 | 111 | 0.9 | 2.6 | 0.00 | 0.00 | 0.00 | 83 | 1018.5 |
| 20260502061351 | 52 | 87 | 0.0 | 2.6 | 0.00 | 0.00 | 0.00 | 82 | 1018.5 |
| 20260502060847 | 52 | 67 | 0.0 | 3.5 | 0.00 | 0.00 | 0.00 | 83 | 1018.5 |
| 20260502060342 | 52 | 215 | 0.9 | 1.7 | 0.00 | 0.00 | 0.00 | 82 | 1018.5 |
| 20260502055840 | 52 | 216 | 3.5 | 5.2 | 0.00 | 0.00 | 0.00 | 82 | 1018.5 |
| 20260502055338 | 52 | 62 | 0.9 | 2.6 | 0.00 | 0.00 | 0.00 | 82 | 1018.2 |
| 20260502054837 | 52 | 124 | 1.7 | 2.6 | 0.00 | 0.00 | 0.00 | 82 | 1018.5 |
| 20260502054334 | 52 | 1 | 1.7 | 7.0 | 0.00 | 0.00 | 0.00 | 81 | 1018.5 |
| 20260502053831 | 52 | 59 | 0.9 | 5.2 | 0.00 | 0.00 | 0.00 | 81 | 1018.5 |
| 20260502053328 | 52 | 57 | 1.7 | 5.2 | 0.00 | 0.00 | 0.00 | 81 | 1018.5 |
| 20260502052826 | 53 | 341 | 2.6 | 5.2 | 0.00 | 0.00 | 0.00 | 81 | 1018.2 |
| 20260502052324 | 53 | 6 | 1.7 | 3.5 | 0.00 | 0.00 | 0.00 | 80 | 1018.5 |
| 20260502051821 | 53 | 102 | 0.9 | 8.7 | 0.00 | 0.00 | 0.00 | 80 | 1018.5 |
| 20260502051320 | 53 | 88 | 1.7 | 7.8 | 0.00 | 0.00 | 0.00 | 80 | 1018.5 |
| 20260502050816 | 53 | 32 | 1.7 | 5.2 | 0.00 | 0.00 | 0.00 | 79 | 1018.5 |
| 20260502050313 | 53 | 6 | 4.3 | 6.1 | 0.00 | 0.00 | 0.00 | 78 | 1018.5 |
| 20260502045810 | 53 | 65 | 1.7 | 3.5 | 0.00 | 0.00 | 0.00 | 79 | 1018.5 |
| 20260502045306 | 53 | 343 | 1.7 | 8.7 | 0.00 | 0.00 | 0.00 | 80 | 1018.5 |
| 20260502044804 | 53 | 9 | 0.9 | 3.5 | 0.00 | 0.00 | 0.00 | 79 | 1018.2 |
| 20260502044259 | 54 | 357 | 1.7 | 6.1 | 0.00 | 0.00 | 0.00 | 79 | 1018.2 |
| 20260502043757 | 54 | 114 | 1.7 | 6.1 | 0.00 | 0.00 | 0.00 | 78 | 1018.2 |
| 20260502043254 | 54 | 65 | 1.7 | 5.2 | 0.00 | 0.00 | 0.00 | 78 | 1017.9 |
| 20260502042753 | 54 | 91 | 1.7 | 6.1 | 0.00 | 0.00 | 0.00 | 77 | 1018.2 |
| 20260502042251 | 54 | 104 | 2.6 | 6.1 | 0.00 | 0.00 | 0.00 | 77 | 1018.2 |
| 20260502041749 | 54 | 105 | 0.9 | 6.1 | 0.00 | 0.00 | 0.00 | 77 | 1018.2 |
| 20260502041246 | 54 | 306 | 2.6 | 6.1 | 0.00 | 0.00 | 0.00 | 77 | 1018.2 |
| 20260502040743 | 54 | 104 | 0.9 | 5.2 | 0.00 | 0.00 | 0.00 | 77 | 1018.2 |
| 20260502040239 | 54 | 103 | 0.9 | 3.5 | 0.00 | 0.00 | 0.00 | 77 | 1018.2 |
| 20260502035735 | 55 | 344 | 1.7 | 5.2 | 0.00 | 0.00 | 0.00 | 77 | 1018.2 |
| 20260502035232 | 55 | 312 | 1.7 | 6.1 | 0.00 | 0.00 | 0.00 | 76 | 1018.2 |
| 20260502034730 | 55 | 1 | 5.2 | 7.8 | 0.00 | 0.00 | 0.00 | 75 | 1017.9 |
| 20260502034228 | 56 | 18 | 3.5 | 8.7 | 0.00 | 0.00 | 0.00 | 73 | 1017.9 |
| 20260502033726 | 56 | 228 | 1.7 | 6.1 | 0.00 | 0.00 | 0.00 | 73 | 1017.9 |
| 20260502033223 | 56 | 339 | 2.6 | 6.1 | 0.00 | 0.00 | 0.00 | 72 | 1017.9 |
| 20260502032720 | 56 | 12 | 1.7 | 5.2 | 0.00 | 0.00 | 0.00 | 73 | 1017.9 |
| 20260502032216 | 56 | 187 | 0.9 | 7.0 | 0.00 | 0.00 | 0.00 | 72 | 1017.9 |
| 20260502031714 | 56 | 281 | 1.7 | 8.7 | 0.00 | 0.00 | 0.00 | 72 | 1017.9 |
| 20260502031212 | 56 | 20 | 1.7 | 7.8 | 0.00 | 0.00 | 0.00 | 72 | 1017.9 |
| 20260502030710 | 56 | 350 | 2.6 | 7.0 | 0.00 | 0.00 | 0.00 | 71 | 1017.9 |
| 20260502030208 | 56 | 109 | 0.9 | 7.0 | 0.00 | 0.00 | 0.00 | 72 | 1017.5 |
| 20260502025705 | 56 | 338 | 2.6 | 7.8 | 0.00 | 0.00 | 0.00 | 73 | 1017.5 |
| 20260502025203 | 56 | 344 | 1.7 | 5.2 | 0.00 | 0.00 | 0.00 | 73 | 1017.5 |
| 20260502024700 | 56 | 120 | 0.9 | 5.2 | 0.00 | 0.00 | 0.00 | 73 | 1017.5 |
| 20260502024158 | 56 | 70 | 2.6 | 6.1 | 0.00 | 0.00 | 0.00 | 73 | 1017.5 |
| 20260502023656 | 56 | 32 | 4.3 | 7.8 | 0.00 | 0.00 | 0.00 | 74 | 1017.5 |
| 20260502023153 | 56 | 346 | 1.7 | 2.6 | 0.00 | 0.00 | 0.00 | 75 | 1017.5 |
| 20260502022650 | 56 | 339 | 1.7 | 2.6 | 0.00 | 0.00 | 0.00 | 75 | 1017.5 |
| 20260502022147 | 56 | 308 | 1.7 | 3.5 | 0.00 | 0.00 | 0.00 | 75 | 1017.5 |
| 20260502021644 | 56 | 10 | 1.7 | 3.5 | 0.00 | 0.00 | 0.00 | 75 | 1017.2 |
| 20260502021141 | 57 | 94 | 1.7 | 5.2 | 0.00 | 0.00 | 0.00 | 74 | 1017.2 |
| 20260502020638 | 57 | 329 | 4.3 | 7.0 | 0.00 | 0.00 | 0.00 | 74 | 1017.5 |
| 20260502020135 | 57 | 332 | 0.9 | 3.5 | 0.00 | 0.00 | 0.00 | 73 | 1017.5 |
| 20260502015633 | 57 | 74 | 2.6 | 7.0 | 0.00 | 0.00 | 0.00 | 74 | 1017.5 |
| 20260502015129 | 57 | 257 | 1.7 | 2.6 | 0.00 | 0.00 | 0.00 | 74 | 1017.5 |
| 20260502014627 | 57 | 345 | 1.7 | 5.2 | 0.00 | 0.00 | 0.00 | 74 | 1017.5 |
| 20260502014124 | 57 | 353 | 3.5 | 8.7 | 0.00 | 0.00 | 0.00 | 73 | 1017.5 |
| 20260502013620 | 58 | 307 | 3.5 | 6.1 | 0.00 | 0.00 | 0.00 | 73 | 1017.5 |
| 20260502013115 | 58 | 190 | 0.9 | 3.5 | 0.00 | 0.00 | 0.00 | 74 | 1017.5 |
| 20260502012613 | 57 | 229 | 1.7 | 3.5 | 0.00 | 0.00 | 0.00 | 74 | 1017.9 |
| 20260502012111 | 57 | 105 | 0.9 | 6.1 | 0.00 | 0.00 | 0.00 | 74 | 1017.9 |
| 20260502011607 | 57 | 290 | 1.7 | 3.5 | 0.00 | 0.00 | 0.00 | 74 | 1017.9 |
| 20260502011103 | 58 | 354 | 4.3 | 7.0 | 0.00 | 0.00 | 0.00 | 74 | 1017.5 |
| 20260502010601 | 58 | 101 | 0.9 | 1.7 | 0.00 | 0.00 | 0.00 | 75 | 1017.5 |
| 20260502010057 | 58 | 89 | 1.7 | 3.5 | 0.00 | 0.00 | 0.00 | 75 | 1017.9 |
| 20260502005555 | 59 | 343 | 0.9 | 7.0 | 0.00 | 0.00 | 0.00 | 75 | 1017.5 |
| 20260502005052 | 59 | 357 | 4.3 | 7.0 | 0.00 | 0.00 | 0.00 | 74 | 1017.5 |
| 20260502004548 | 58 | 339 | 3.5 | 5.2 | 0.00 | 0.00 | 0.00 | 75 | 1017.9 |
| 20260502004045 | 58 | 324 | 1.7 | 5.2 | 0.00 | 0.00 | 0.00 | 74 | 1017.9 |
| 20260502003543 | 59 | 261 | 2.6 | 7.8 | 0.00 | 0.00 | 0.00 | 73 | 1017.9 |
| 20260502003039 | 59 | 16 | 2.6 | 7.8 | 0.00 | 0.00 | 0.00 | 72 | 1017.9 |
| 20260502002536 | 59 | 323 | 1.7 | 5.2 | 0.00 | 0.00 | 0.00 | 72 | 1017.9 |
| 20260502002033 | 59 | 80 | 0.9 | 8.7 | 0.00 | 0.00 | 0.00 | 72 | 1017.9 |
| 20260502001531 | 59 | 39 | 2.6 | 7.0 | 0.00 | 0.00 | 0.00 | 72 | 1017.9 |
| 20260502001028 | 60 | 13 | 3.5 | 6.1 | 0.00 | 0.00 | 0.00 | 70 | 1017.9 |
| 20260502000526 | 62 | 9 | 3.5 | 5.2 | 0.00 | 0.00 | 0.00 | 67 | 1017.9 |
| 20260502000023 | 61 | 25 | 0.9 | 2.6 | 0.00 | 0.00 | 0.00 | 68 | 1017.9 |
| 20260501235519 | 61 | 317 | 1.7 | 2.6 | 0.00 | 0.00 | 0.00 | 68 | 1017.9 |
| 20260501235014 | 60 | 266 | 1.7 | 8.7 | 0.00 | 0.00 | 0.00 | 71 | 1017.9 |
| 20260501234510 | 59 | 323 | 3.5 | 8.7 | 0.00 | 0.00 | 0.00 | 71 | 1017.9 |
| 20260501234009 | 59 | 343 | 1.7 | 5.2 | 0.00 | 0.00 | 0.00 | 72 | 1017.9 |
| 20260501233507 | 60 | 330 | 5.2 | 6.1 | 0.00 | 0.00 | 0.00 | 69 | 1017.9 |
| 20260501233002 | 61 | 27 | 1.7 | 7.0 | 0.00 | 0.00 | 0.00 | 68 | 1017.9 |
| 20260501232459 | 61 | 334 | 0.9 | 3.5 | 0.00 | 0.00 | 0.00 | 67 | 1017.9 |
| 20260501231956 | 62 | 133 | 0.9 | 7.8 | 0.00 | 0.00 | 0.00 | 66 | 1017.9 |
| 20260501231455 | 62 | 77 | 0.9 | 6.1 | 0.00 | 0.00 | 0.00 | 67 | 1018.2 |
| 20260501230952 | 64 | 62 | 1.7 | 2.6 | 0.00 | 0.00 | 0.00 | 64 | 1018.2 |
| 20260501230451 | 63 | 62 | 0.9 | 6.1 | 0.00 | 0.00 | 0.00 | 65 | 1018.2 |
| 20260501225948 | 62 | 245 | 3.5 | 3.5 | 0.00 | 0.00 | 0.00 | 65 | 1018.2 |
| 20260501225446 | 62 | 129 | 0.9 | 6.1 | 0.00 | 0.00 | 0.00 | 66 | 1018.5 |
| 20260501224941 | 61 | 338 | 1.7 | 7.8 | 0.00 | 0.00 | 0.00 | 67 | 1018.2 |
| 20260501224439 | 61 | 49 | 0.9 | 6.1 | 0.00 | 0.00 | 0.00 | 66 | 1018.5 |
| 20260501223936 | 61 | 338 | 3.5 | 6.1 | 0.00 | 0.00 | 0.00 | 67 | 1018.5 |
| 20260501223432 | 60 | 335 | 5.2 | 6.1 | 0.00 | 0.00 | 0.00 | 67 | 1018.5 |
| 20260501222928 | 62 | 149 | 1.7 | 5.2 | 0.00 | 0.00 | 0.00 | 66 | 1018.5 |
| 20260501222425 | 61 | 1 | 1.7 | 5.2 | 0.00 | 0.00 | 0.00 | 66 | 1018.5 |
| 20260501221921 | 60 | 288 | 3.5 | 6.1 | 0.00 | 0.00 | 0.00 | 66 | 1018.5 |
| 20260501221419 | 59 | 0 | 3.5 | 5.2 | 0.00 | 0.00 | 0.00 | 67 | 1018.9 |
| 20260501220917 | 61 | 113 | 0.9 | 5.2 | 0.00 | 0.00 | 0.00 | 65 | 1018.5 |
| 20260501220414 | 62 | 58 | 0.9 | 8.7 | 0.00 | 0.00 | 0.00 | 63 | 1018.9 |
| 20260501215910 | 63 | 37 | 1.7 | 5.2 | 0.00 | 0.00 | 0.00 | 61 | 1018.9 |
| 20260501215407 | 62 | 114 | 0.9 | 3.5 | 0.00 | 0.00 | 0.00 | 62 | 1018.5 |
| 20260501214902 | 63 | 86 | 2.6 | 7.8 | 0.00 | 0.00 | 0.00 | 59 | 1018.9 |
| 20260501214357 | 62 | 57 | 3.5 | 7.0 | 0.00 | 0.00 | 0.00 | 62 | 1018.9 |
| 20260501213853 | 62 | 79 | 0.9 | 8.7 | 0.00 | 0.00 | 0.00 | 64 | 1018.9 |
| 20260501213350 | 62 | 124 | 0.0 | 1.7 | 0.00 | 0.00 | 0.00 | 64 | 1018.9 |
| 20260501212840 | 60 | 16 | 1.7 | 3.5 | 0.00 | 0.00 | 0.00 | 67 | 1018.9 |
| 20260501212337 | 63 | 304 | 3.5 | 7.8 | 0.00 | 0.00 | 0.00 | 65 | 1018.9 |
| 20260501211834 | 62 | 91 | 1.7 | 5.2 | 0.00 | 0.00 | 0.00 | 67 | 1018.9 |
| 20260501211332 | 60 | 90 | 2.6 | 7.0 | 0.00 | 0.00 | 0.00 | 70 | 1018.9 |
| 20260501210829 | 62 | 311 | 5.2 | 7.8 | 0.00 | 0.00 | 0.00 | 66 | 1018.9 |
| 20260501210326 | 61 | 104 | 0.0 | 7.8 | 0.00 | 0.00 | 0.00 | 70 | 1018.5 |
| 20260501205822 | 61 | 287 | 3.5 | 8.7 | 0.00 | 0.00 | 0.00 | 69 | 1018.9 |
| 20260501205319 | 61 | 80 | 2.6 | 5.2 | 0.00 | 0.00 | 0.00 | 69 | 1018.9 |
| 20260501204816 | 60 | 51 | 4.3 | 7.8 | 0.00 | 0.00 | 0.00 | 70 | 1018.5 |
| 20260501204312 | 60 | 251 | 3.5 | 5.2 | 0.00 | 0.00 | 0.00 | 72 | 1018.9 |
| 20260501203808 | 63 | 315 | 5.2 | 7.8 | 0.00 | 0.00 | 0.00 | 67 | 1018.9 |
| 20260501203306 | 61 | 83 | 0.9 | 3.5 | 0.00 | 0.00 | 0.00 | 71 | 1018.9 |
| 20260501202803 | 60 | 52 | 0.9 | 5.2 | 0.00 | 0.00 | 0.00 | 72 | 1018.9 |
| 20260501202300 | 62 | 29 | 3.5 | 9.6 | 0.00 | 0.00 | 0.00 | 70 | 1018.9 |
| 20260501201757 | 60 | 50 | 0.0 | 1.7 | 0.00 | 0.00 | 0.00 | 72 | 1018.9 |
| 20260501201253 | 58 | 280 | 0.9 | 2.6 | 0.00 | 0.00 | 0.00 | 75 | 1018.9 |
| 20260501200750 | 58 | 312 | 3.5 | 7.0 | 0.00 | 0.00 | 0.00 | 75 | 1018.9 |
| 20260501200247 | 58 | 226 | 1.7 | 3.5 | 0.00 | 0.00 | 0.00 | 75 | 1018.9 |
| 20260501195745 | 58 | 23 | 2.6 | 5.2 | 0.00 | 0.00 | 0.00 | 75 | 1019.2 |
| 20260501195240 | 61 | 219 | 0.9 | 6.1 | 0.00 | 0.00 | 0.00 | 71 | 1018.9 |
| 20260501194737 | 61 | 55 | 1.7 | 1.7 | 0.00 | 0.00 | 0.00 | 70 | 1018.9 |
| 20260501194233 | 58 | 196 | 1.7 | 2.6 | 0.00 | 0.00 | 0.00 | 74 | 1018.9 |
| 20260501193729 | 60 | 0 | 4.3 | 7.0 | 0.00 | 0.00 | 0.00 | 73 | 1018.9 |
| 20260501193228 | 61 | 18 | 1.7 | 5.2 | 0.00 | 0.00 | 0.00 | 72 | 1018.9 |
| 20260501192725 | 61 | 118 | 0.0 | 2.6 | 0.00 | 0.00 | 0.00 | 72 | 1019.2 |
| 20260501192222 | 59 | 157 | 0.9 | 2.6 | 0.00 | 0.00 | 0.00 | 73 | 1018.9 |
| 20260501191719 | 59 | 266 | 1.7 | 5.2 | 0.00 | 0.00 | 0.00 | 73 | 1019.2 |
| 20260501191216 | 61 | 300 | 1.7 | 2.6 | 0.00 | 0.00 | 0.00 | 70 | 1019.2 |
| 20260501190712 | 60 | 100 | 0.9 | 3.5 | 0.00 | 0.00 | 0.00 | 73 | 1019.2 |
| 20260501190208 | 59 | 47 | 0.9 | 3.5 | 0.00 | 0.00 | 0.00 | 73 | 1019.6 |
| 20260501185704 | 58 | 295 | 2.6 | 5.2 | 0.00 | 0.00 | 0.00 | 74 | 1019.2 |
| 20260501185159 | 57 | 357 | 2.6 | 6.1 | 0.00 | 0.00 | 0.00 | 76 | 1019.2 |
| 20260501184650 | 58 | 260 | 3.5 | 5.2 | 0.00 | 0.00 | 0.00 | 74 | 1019.2 |
| 20260501184145 | 58 | 221 | 1.7 | 2.6 | 0.00 | 0.00 | 0.00 | 75 | 1019.2 |
| 20260501183642 | 57 | 91 | 0.9 | 6.1 | 0.00 | 0.00 | 0.00 | 75 | 1019.2 |
| 20260501183138 | 59 | 343 | 1.7 | 5.2 | 0.00 | 0.00 | 0.00 | 73 | 1019.6 |
| 20260501182635 | 60 | 79 | 1.7 | 2.6 | 0.00 | 0.00 | 0.00 | 71 | 1019.6 |
| 20260501182131 | 59 | 80 | 1.7 | 3.5 | 0.00 | 0.00 | 0.00 | 73 | 1019.6 |
| 20260501181629 | 58 | 343 | 1.7 | 5.2 | 0.00 | 0.00 | 0.00 | 75 | 1019.6 |